OSCAR 17 (DOVE)

Satellite information

Favourite Embed

Satellite Type and Status

PAYLOADIN ORBIT

Key statistics

Satellite OSCAR 17 (DOVE) at a glance.

Uptime

12888

Days in orbit

Revolutions

≈ 14.3

Per day

Orbit

SSO

Sun Synchronous Orbit

Inclination

98.9

Latest

Satellite identification and parameters

Extended collection of information and parameters for OSCAR 17 (DOVE).

Object identification

Identified? True

Debris? False

Object name: OSCAR 17 (DOVE)

International designator: 1990-005E

Object number (NORAD): 20440

Object ID (CCSDS): 20440

Country: BRAZIL (BRAZ)

Current information (Y/N): Y

RCS size: MEDIUM

Orbital parameters

Period: 100.398 minutes

Inclination: 98.891 deg

SMA: 7155.566 km

Apoapsis: 784.524 km

Periapsis: 770.337 km

RAAN: 140.0977 deg

Eccentricy: 0.0009913

Argument of periapsis: 326.0663 deg

Mean anomaly: 211.5363 deg

Mean motion: 14.34289491 rev/day

Mean motion (dot): 0.00000287 rev/day2

B* drag term: 0.00011891 1/REarth

Two-line elements (TLE)

Creation date: May 6, 2025, 3:54 a.m.

Reference frame: TEME

Reference center: EARTH

Epoch: May 5, 2025, 6:47 p.m. UTC

TLE line 0: 0 OSCAR 17 (DOVE)

TLE line 1: 1 20440U 90005E 25125.78330833 .00000287 00000-0 11891-3 0 9994

TLE line 2: 2 20440 98.8910 140.0977 0009913 326.0663 211.5363 14.34289491843936

Live tracking on map

Real-time ground track for satellite OSCAR 17 (DOVE).

In-orbit conjunctions

A list of the most updated potential collisions computed for object OSCAR 17 (DOVE).

Target Orbit TCA Probability of collision Miss distance Type
COSMOS 2251 DEB LEO 2025-05-04 11:20:22 0.001048368 182.0 (m) DEBRIS
COSMOS 1818 COOLANT LEO 2025-04-10 22:11:55 0.0001441393 720.0 (m) DEBRIS
COSMOS 1354 LEO 2025-03-16 10:27:43 0.0001246819 302.0 (m) PAYLOAD
NOAA 16 DEB SSO 2025-02-09 01:26:52 0.0004473899 362.0 (m) DEBRIS
ARIANE 1 DEB SSO 2025-01-30 09:36:23 0.0002083496 115.0 (m) DEBRIS

Associated space launch

French Earth observation satellite

OSCAR 17 (DOVE) was lifted into orbit during the mission ‘Ariane 40 | SPOT 2’, on board a Ariane 40 space rocket.

The launch took place on Jan. 22, 1990, 1:35 a.m. from Ariane Launch Area 2.

For more information about the launch, click the button.

Launch to space Ariane 40 | SPOT 2
Ariane 40 | SPOT 2

Agency: N/A

Status: Launch Successful

Launch date: Jan. 22, 1990, 1:35 a.m. UTC

Rocket: Ariane 40

Launch pad: Ariane Launch Area 2

Location: Guiana Space Centre, French Guiana

...

Latest news about this satellite

There are no fresh news available about this satellite. Check back as we update our databases every day.


Newsletter sign-up

Weekly statistics, charts and insights to help you stay on top of the space industry.